Hourly Weather Otrakkala

Today, 23 July, Friday

Time Temperature Precipitation Wind Pressure Humidity
00:00 +12°C° 0 mm 2 mps 744 mmHg 85%
01:00 +12°C° 0 mm 2 mps 744 mmHg 85%
02:00 +12°C° 0 mm 2 mps 744 mmHg 86%
03:00 +12°C° 0 mm 2 mps 744 mmHg 86%
04:00 +12°C° 0 mm 2 mps 744 mmHg 87%
05:00 +12°C° 0 mm 2 mps 744 mmHg 87%
06:00 +13°C° 0.2 mm 2 mps 744 mmHg 82%
07:00 +13°C° 0.2 mm 3 mps 745 mmHg 78%
08:00 +13°C° 0 mm 3 mps 745 mmHg 74%
09:00 +15°C° 0.1 mm 4 mps 745 mmHg 65%
10:00 +17°C° 0.1 mm 4 mps 745 mmHg 55%
11:00 +17°C° 0.1 mm 5 mps 745 mmHg 45%
12:00 +17°C° 0 mm 5 mps 746 mmHg 44%
13:00 +17°C° 0 mm 5 mps 746 mmHg 42%
14:00 +16°C° 0 mm 5 mps 746 mmHg 40%
15:00 +18°C° 0 mm 4 mps 747 mmHg 39%
16:00 +18°C° 0 mm 4 mps 747 mmHg 37%
17:00 +18°C° 0 mm 4 mps 747 mmHg 35%
18:00 +17°C° 0 mm 4 mps 747 mmHg 40%
19:00 +14°C° 0 mm 3 mps 748 mmHg 44%
20:00 +14°C° 0 mm 2 mps 748 mmHg 49%
21:00 +12°C° 0 mm 2 mps 748 mmHg 56%
22:00 +10°C° 0 mm 2 mps 749 mmHg 64%
23:00 +8°C° 0 mm 2 mps 749 mmHg 71%

Tomorrow, 24 July, Saturday

Time Temperature Precipitation Wind Pressure Humidity
00:00 +9°C° 0 mm 1 mps 750 mmHg 74%
01:00 +8°C° 0 mm 1 mps 750 mmHg 78%
02:00 +8°C° 0 mm 1 mps 750 mmHg 81%
03:00 +8°C° 0 mm 1 mps 750 mmHg 77%
04:00 +9°C° 0 mm 1 mps 751 mmHg 74%
05:00 +10°C° 0 mm 1 mps 751 mmHg 70%
06:00 +12°C° 0 mm 1 mps 751 mmHg 62%
07:00 +14°C° 0 mm 2 mps 751 mmHg 54%
08:00 +15°C° 0 mm 2 mps 751 mmHg 46%
09:00 +16°C° 0 mm 2 mps 751 mmHg 45%
10:00 +16°C° 0 mm 2 mps 751 mmHg 43%
11:00 +17°C° 0 mm 2 mps 752 mmHg 41%
12:00 +18°C° 0 mm 2 mps 751 mmHg 39%
13:00 +19°C° 0 mm 2 mps 751 mmHg 37%
14:00 +19°C° 0 mm 2 mps 751 mmHg 35%
15:00 +19°C° 0 mm 2 mps 751 mmHg 36%
16:00 +19°C° 0 mm 2 mps 751 mmHg 37%
17:00 +19°C° 0 mm 2 mps 752 mmHg 38%
18:00 +18°C° 0 mm 2 mps 752 mmHg 45%
19:00 +17°C° 0 mm 2 mps 752 mmHg 51%
20:00 +16°C° 0 mm 2 mps 751 mmHg 57%
21:00 +16°C° 0 mm 2 mps 752 mmHg 60%
22:00 +15°C° 0 mm 2 mps 752 mmHg 62%
23:00 +15°C° 0 mm 2 mps 752 mmHg 64%

Day after tomorrow, 25 July, Sunday

Time Temperature Precipitation Wind Pressure Humidity
00:00 +14°C° 0 mm 2 mps 752 mmHg 66%
01:00 +14°C° 0 mm 2 mps 752 mmHg 69%
02:00 +14°C° 0 mm 2 mps 752 mmHg 71%
03:00 +14°C° 0 mm 1 mps 752 mmHg 72%
04:00 +14°C° 0 mm 1 mps 752 mmHg 72%
05:00 +14°C° 0 mm 1 mps 753 mmHg 73%
06:00 +16°C° 0 mm 1 mps 753 mmHg 66%
07:00 +19°C° 0 mm 1 mps 753 mmHg 59%
08:00 +20°C° 0 mm 2 mps 753 mmHg 52%
09:00 +21°C° 0 mm 2 mps 753 mmHg 48%
10:00 +23°C° 0 mm 2 mps 753 mmHg 44%
11:00 +24°C° 0 mm 3 mps 753 mmHg 41%
12:00 +24°C° 0 mm 3 mps 753 mmHg 38%
13:00 +24°C° 0 mm 3 mps 753 mmHg 36%
14:00 +25°C° 0 mm 3 mps 754 mmHg 34%
15:00 +25°C° 0 mm 3 mps 754 mmHg 35%
16:00 +25°C° 0 mm 3 mps 753 mmHg 36%
17:00 +25°C° 0 mm 3 mps 753 mmHg 37%
18:00 +23°C° 0 mm 2 mps 753 mmHg 44%
19:00 +20°C° 0 mm 2 mps 754 mmHg 50%
20:00 +20°C° 0 mm 1 mps 754 mmHg 57%
21:00 +19°C° 0 mm 1 mps 754 mmHg 57%
22:00 +19°C° 0 mm 1 mps 754 mmHg 58%
23:00 +18°C° 0 mm 1 mps 754 mmHg 58%

26 July, Monday

Time Temperature Precipitation Wind Pressure Humidity
00:00 +17°C° 0 mm 2 mps 754 mmHg 61%
01:00 +17°C° 0 mm 2 mps 754 mmHg 65%
02:00 +17°C° 0 mm 2 mps 754 mmHg 68%
03:00 +17°C° 0 mm 2 mps 754 mmHg 71%
04:00 +16°C° 0 mm 1 mps 754 mmHg 74%
05:00 +16°C° 0 mm 1 mps 755 mmHg 77%
06:00 +20°C° 0 mm 1 mps 755 mmHg 68%
07:00 +22°C° 0 mm 1 mps 755 mmHg 59%
08:00 +24°C° 0 mm 1 mps 755 mmHg 50%
09:00 +26°C° 0 mm 1 mps 755 mmHg 45%
10:00 +27°C° 0 mm 2 mps 755 mmHg 40%
11:00 +28°C° 0 mm 2 mps 755 mmHg 35%
12:00 +29°C° 0 mm 2 mps 755 mmHg 34%
13:00 +29°C° 0 mm 2 mps 755 mmHg 33%
14:00 +29°C° 0 mm 2 mps 755 mmHg 32%
15:00 +29°C° 0 mm 2 mps 755 mmHg 32%
16:00 +29°C° 0 mm 2 mps 755 mmHg 33%
17:00 +29°C° 0 mm 2 mps 755 mmHg 33%
18:00 +27°C° 0 mm 1 mps 755 mmHg 41%
19:00 +25°C° 0 mm 1 mps 755 mmHg 48%
20:00 +23°C° 0 mm 1 mps 755 mmHg 56%
21:00 +22°C° 0 mm 1 mps 755 mmHg 59%
22:00 +20°C° 0 mm 1 mps 755 mmHg 61%
23:00 +19°C° 0 mm 1 mps 755 mmHg 64%

27 July, Tuesday

Time Temperature Precipitation Wind Pressure Humidity
00:00 +19°C° 0 mm 1 mps 755 mmHg 65%
01:00 +16°C° 0 mm 0 mps 755 mmHg 67%
02:00 +16°C° 0 mm 0 mps 755 mmHg 68%
03:00 +16°C° 0 mm 0 mps 756 mmHg 68%
04:00 +19°C° 0 mm 1 mps 756 mmHg 68%
05:00 +19°C° 0 mm 1 mps 756 mmHg 68%
06:00 +21°C° 0 mm 1 mps 756 mmHg 60%
07:00 +23°C° 0 mm 1 mps 756 mmHg 52%
08:00 +26°C° 0 mm 1 mps 755 mmHg 45%
09:00 +27°C° 0 mm 2 mps 755 mmHg 41%
10:00 +28°C° 0 mm 2 mps 755 mmHg 37%
11:00 +29°C° 0 mm 2 mps 755 mmHg 33%
12:00 +29°C° 0 mm 3 mps 755 mmHg 32%
13:00 +30°C° 0 mm 3 mps 754 mmHg 31%
14:00 +30°C° 0 mm 3 mps 754 mmHg 30%
15:00 +29°C° 0 mm 3 mps 754 mmHg 34%
16:00 +28°C° 0 mm 3 mps 753 mmHg 38%
17:00 +27°C° 0 mm 3 mps 753 mmHg 41%
18:00 +26°C° 0 mm 3 mps 753 mmHg 48%
19:00 +24°C° 0 mm 2 mps 753 mmHg 54%
20:00 +21°C° 0 mm 2 mps 753 mmHg 61%
21:00 +21°C° 0 mm 2 mps 752 mmHg 62%
22:00 +21°C° 0 mm 1 mps 752 mmHg 63%
23:00 +20°C° 0 mm 1 mps 752 mmHg 65%

28 July, Wednesday

Time Temperature Precipitation Wind Pressure Humidity
00:00 +20°C° 0 mm 1 mps 752 mmHg 67%
01:00 +19°C° 0 mm 1 mps 752 mmHg 70%
02:00 +19°C° 0 mm 1 mps 751 mmHg 73%
03:00 +19°C° 0 mm 1 mps 751 mmHg 72%
04:00 +19°C° 0 mm 1 mps 751 mmHg 72%
05:00 +20°C° 0 mm 1 mps 751 mmHg 71%
06:00 +20°C° 0.1 mm 2 mps 750 mmHg 66%
07:00 +23°C° 0.1 mm 2 mps 750 mmHg 61%
08:00 +25°C° 0.1 mm 3 mps 750 mmHg 56%
09:00 +26°C° 0 mm 3 mps 750 mmHg 52%
10:00 +27°C° 0 mm 3 mps 749 mmHg 48%
11:00 +28°C° 0 mm 4 mps 749 mmHg 44%
12:00 +27°C° 0 mm 4 mps 749 mmHg 47%
13:00 +26°C° 0 mm 3 mps 748 mmHg 50%
14:00 +26°C° 0 mm 3 mps 748 mmHg 54%
15:00 +26°C° 0 mm 3 mps 748 mmHg 51%
16:00 +26°C° 0 mm 3 mps 747 mmHg 49%
17:00 +27°C° 0 mm 4 mps 747 mmHg 47%
18:00 +25°C° 0 mm 3 mps 746 mmHg 53%
19:00 +24°C° 0 mm 3 mps 746 mmHg 59%
20:00 +21°C° 0 mm 2 mps 746 mmHg 65%
21:00 +20°C° 0.3 mm 2 mps 745 mmHg 75%
22:00 +19°C° 0.3 mm 2 mps 745 mmHg 85%
23:00 +18°C° 0.3 mm 2 mps 745 mmHg 95%
Show more